Location: Mountain_View
(35.6670°N, 81.4000°W)
Time: 01:26:37
(UTC-04:00)

Daily predictions for brighter satellites

Satellite Brightness Start Highest point End
(mag) Time Altitude Azimuth Time Altitude Azimuth Time Altitude Azimuth
CZ-4C R/B 3.9 03:40:28 41° NE 03:40:29 41° NE 03:47:45 10° ESE
ATLAS 2AS CENTAUR R/B 4.1 04:00:18 34° N 04:00:18 34° N 04:05:29 10° NNE
Okean O Rocket 4.1 04:14:50 10° NE 04:16:41 19° ENE 04:16:41 19° ENE
Cosmos 2344 3.5 04:26:23 88° NNE 04:26:23 88° NNE 04:34:42 10° NNE
BREEZE-M DEB (TANK) 4.5 04:36:06 43° ENE 04:36:06 43° ENE 04:38:12 10° ENE
USA 238 DEB 3.7 04:35:03 78° NNE 04:35:24 81° ENE 04:42:28 10° SE
USA 238 3.7 04:34:56 74° N 04:35:30 80° ENE 04:42:33 10° SE
Cosmos 2227 Rocket 3.2 04:35:18 39° ESE 04:35:53 40° ESE 04:41:08 10° NE
Cosmos 1607 4.2 04:38:47 63° ESE 04:38:47 63° ESE 04:44:08 10° SE
Cosmos 2297 Rocket 3.6 04:43:33 25° SE 04:45:42 34° ESE 04:50:44 10° NE
ADEOS II 4.3 04:43:50 10° NE 04:47:52 22° E 04:51:52 10° SE
Cosmos 2219 Rocket 2.9 04:42:27 10° N 04:48:00 51° ENE 04:53:30 10° SE
CZ-4B R/B 4.3 04:43:53 10° NNE 04:47:43 39° E 04:47:43 39° E
CZ-2D R/B 3.9 04:49:04 10° N 04:50:46 20° NNW 04:50:46 20° NNW
Cosmos 1727 Rocket 4.3 04:51:31 32° SSE 04:54:25 64° E 05:00:37 10° NNE
Cosmos 1777 Rocket 4.4 04:57:51 55° N 04:57:51 55° N 05:01:57 10° NNE
Lacrosse 5 rocket 3.7 05:01:27 17° N 05:01:27 17° N 05:03:11 10° NNE
ISS -0.6 05:07:45 16° ESE 05:07:45 16° ESE 05:08:35 10° ESE
PAYLOAD B 4.2 05:00:17 10° NNE 05:05:48 76° ESE 05:07:22 48° S
Cosmos 2082 3.6 05:12:43 52° S 05:14:10 82° ESE 05:19:48 10° NNE
Okean-O 4.1 05:13:58 10° NNE 05:18:04 36° E 05:22:09 10° SSE
Meteor 1-19 Rocket 4.2 05:16:23 24° S 05:19:58 80° E 05:25:37 10° N
Cosmos 2333 Rocket 2.3 05:14:52 10° NNW 05:20:35 75° ENE 05:26:14 10° SSE
Lacrosse 5 1.7 05:20:27 72° WSW 05:20:54 81° NW 05:25:59 10° NE
ADEOS Rocket 3.4 05:14:41 10° NNE 05:21:53 73° ESE 05:28:17 10° S
Cosmos 1680 Rocket 4.1 05:16:50 10° N 05:22:03 58° ENE 05:27:12 10° SSE
Resurs 1-4 Rocket 4.1 05:22:46 10° NNW 05:24:02 14° NW 05:24:02 14° NW
IRS-1C Rocket 4.1 05:22:06 10° N 05:27:15 55° WNW 05:27:44 53° W
NOSS 3-4 (A) 3.5 05:26:20 46° WSW 05:28:05 63° NW 05:34:32 10° NNE
NOSS 3-4 (C) 3.5 05:26:24 46° WSW 05:28:10 63° NW 05:34:39 10° NNE
CZ-4C R/B 3.1 05:26:04 30° WNW 05:29:11 44° WSW 05:36:35 10° S
Cosmos 1605 Rocket 3.9 05:26:30 10° NNW 05:32:32 58° W 05:38:36 10° S
OTV 4 2.0 05:33:36 33° ENE 05:33:36 33° ENE 05:35:21 10° E
Cosmos 1934 Rocket 4.4 05:27:35 10° NNW 05:33:06 38° W 05:33:06 38° W
Cosmos 1339 Rocket 4.4 05:32:08 17° SSW 05:37:07 68° W 05:43:30 10° N
Thor Agena Rocket 3.5 05:35:42 10° SSE 05:40:58 89° ENE 05:46:18 10° NNW
Meteor 1-23 Rocket 4.2 05:36:30 10° S 05:42:04 82° E 05:47:45 10° N
Meteor 2-4 Rocket 3.7 05:37:31 10° S 05:43:16 88° W 05:49:12 10° N
NOSS 0 Rocket 3.9 05:38:21 10° NNW 05:44:31 65° WSW 05:50:39 10° S
CZ-4B R/B 3.4 05:40:17 10° N 05:45:28 49° WNW 05:47:54 29° SW
CZ-2C R/B 4.0 05:46:59 40° WSW 05:47:04 40° W 05:51:23 10° NNW
RESURS DK-1 2.3 05:46:43 45° WSW 05:47:43 61° WNW 05:51:50 10° NNE
Cosmos 2237 Rocket 2.1 05:44:54 10° NNW 05:50:32 75° WSW 05:56:08 10° SSE
Hubble Space Telescope 2.2 05:50:28 23° SSW 05:50:47 23° SSW 05:54:04 10° SE
Cosmos 1666 2.8 05:47:46 10° N 05:51:39 75° E 05:55:28 10° S
Okean O Rocket 2.9 05:51:15 10° NNW 05:54:08 23° NW 05:54:08 23° NW
Tiangong 1 1.9 05:54:38 33° NNW 05:54:55 34° NNW 05:57:44 10° NE
USA 116 4.4 05:52:50 10° SSE 05:58:07 85° ENE 06:03:01 10° N
Gbstr 26 Del rocket 4.4 05:51:18 10° NW 05:58:51 71° SW 06:06:57 10° SE
Cosmos 2061 Rocket 4.1 05:52:44 10° N 05:59:04 85° E 06:05:27 10° S
Cosmos 1025 Rocket 3.6 05:59:15 29° WSW 06:00:31 36° W 06:04:33 10° NNW
DELTA 2 R/B (1) 3.6 05:59:55 25° WSW 06:03:17 80° SSE 06:08:52 10° ENE
Cosmos 1980 3.8 05:58:11 10° NNW 06:03:40 51° WSW 06:09:08 10° S
BREEZE M DEB (TANK) 4.4 06:01:28 13° NW 06:03:53 22° N 06:10:05 10° NE
ATLAS 5 CENTAUR R/B 2.4 05:58:35 10° NNW 06:04:45 84° WSW 06:11:18 10° SSE
Cosmos 1346 Rocket 2.9 06:02:16 18° SSW 06:04:53 49° W 06:08:45 10° N
Cosmos 923 Rocket 4.4 06:00:15 10° NNW 06:05:12 40° W 06:10:08 10° S
Cosmos 1802 Rocket 4.0 06:00:05 10° N 06:06:17 85° E 06:12:24 10° S
Cosmos 2100 Rocket 3.9 06:02:27 10° N 06:08:39 72° W 06:14:54 10° S
SL-16 R/B 2.6 06:03:00 10° NNW 06:08:40 66° ENE 06:14:17 10° SSE
CZ-4B R/B 4.0 06:05:13 10° NNE 06:09:10 73° E 06:12:55 10° S
USA 129 2.3 06:08:51 10° SSE 06:10:53 53° ENE 06:12:49 10° N
Cosmos 1606 Rocket 3.7 06:06:49 10° NNW 06:11:01 46° W 06:15:10 10° SSW
Meteor 2-9 Rocket 4.2 06:06:34 10° NNW 06:12:11 71° W 06:17:55 10° S
Cosmos 1743 3.9 06:11:18 10° NW 06:14:10 22° W 06:14:10 22° W
Delta 2 Rocket 2.8 06:17:21 21° W 06:19:41 89° N 06:23:08 10° E
Cosmos 2227 Rocket 3.3 06:17:11 18° W 06:20:01 26° WNW 06:24:41 10° N
NOSS 3-2 (A) 4.3 06:14:24 10° NW 06:21:42 48° WSW 06:29:24 10° S
Cosmos 1726 Rocket 3.9 06:18:43 10° NNW 06:22:51 41° W 06:26:55 10° SSW
Meteor PRIRODA 4.2 06:19:47 10° N 06:23:16 38° WNW 06:26:43 10° SW
Cosmos 1898 Rocket 3.6 06:20:59 10° SSW 06:26:13 57° WNW 06:31:27 10° N
Cosmos 1602 Rocket 3.7 06:22:54 10° S 06:27:21 83° E 06:31:49 10° N
ADEOS II 2.6 06:22:48 10° N 06:27:39 39° WNW 06:32:30 10° SW
Cosmos 1892 Rocket 4.4 06:25:07 10° SW 06:29:01 30° WNW 06:32:59 10° NNW
Cosmos 2297 Rocket 3.1 06:25:25 13° WSW 06:29:42 29° WNW 06:34:36 10° N
Cosmos 2219 Rocket 3.4 06:27:37 10° WNW 06:31:27 19° W 06:35:17 10° SW
SKYMED 2 4.4 06:27:23 10° SSE 06:31:37 55° ENE 06:35:52 10° N
NOAA 6 4.0 06:35:16 10° N 06:40:26 68° WNW 06:45:34 10° SSW
Meteor 1-15 Rocket 4.5 06:35:21 10° NNW 06:40:37 45° W 06:45:55 10° SSW
ISS -1.1 06:40:30 10° WSW 06:41:27 11° SW 06:42:25 10° SW
Cosmos 1937 Rocket 3.6 06:38:22 10° SSW 06:43:27 56° WNW 06:48:37 10° N
COBE Rocket 4.3 06:41:34 10° N 06:46:02 40° WNW 06:50:23 10° SW
MOS 1 Rocket 3.9 06:42:13 10° N 06:46:38 39° WNW 06:51:19 10° SW
Cosmos 2016 Rocket 4.2 06:41:00 10° NNW 06:47:08 53° W 06:53:10 10° SSW
CSL-04 Rocket 4.0 06:44:32 10° NNE 06:49:48 70° ESE 06:55:05 10° S
Meteor 1-31 Rocket 3.7 06:46:32 10° NNW 06:49:57 29° WNW 06:53:22 10° SW
NOSS 2-2 (D) 3.4 06:50:06 10° SW 06:54:07 73° WNW 06:58:39 10° NNE
Okean-O 4.1 06:51:18 10° NNW 06:54:15 18° WNW 06:57:11 10° WSW
Cosmos 1812 Rocket 3.6 06:50:41 10° N 06:55:09 90° W 06:59:36 10° S
Cosmos 1603 4.5 06:50:01 10° NNW 06:55:41 60° ENE 07:01:16 10° SE
